This demonstration page uses our WeatherBlox Daily Observations layout. Learn more.

Left ArrowRight Arrow

34.74481, -87.66753

Hourly Observations for January 26, 2020

Temp ( °F °C ) Dew Point ( °F °C ) Humidity (%) Winds ( mph kmh ) Pressure ( in mb ) Visibility ( mi km ) Precip ( " mm )
12:53 am 00:53 Cloudy 34 1.1 31 -0.6 89 89 Calm 30.12 1020 10 16 0.00 0.00
1:53 am 01:53 Partly Cloudy 34 1.1 31 -0.6 89 89 Calm 30.12 1020 10 16 0.00 0.00
2:53 am 02:53 Clear 34 1.1 31 -0.6 89 89 Calm 30.12 1020 9 14 0.00 0.00
3:53 am 03:53 Cloudy 34 1.1 31 -0.6 89 89 Calm 30.11 1020 8 13 0.00 0.00
4:53 am 04:53 Cloudy 35 1.7 32 0 89 89 Calm 30.11 1020 8 13 0.00 0.00
5:53 am 05:53 Cloudy 36 2.2 33 0.6 89 89 ESE 3 6 30.11 1020 10 16 0.00 0.00
6:53 am 06:53 Cloudy 37 2.8 35 1.7 93 93 Calm 30.12 1020 10 16 0.00 0.00
7:19 am 07:19 Cloudy 38 3.3 35 1.7 89 89 Calm 30.14 1021 9 14 0.00 0.00
7:43 am 07:43 Cloudy 38 3.3 35 1.7 89 89 Calm 30.15 1021 9 14 0.00 0.00
7:53 am 07:53 Cloudy 38 3.3 35 1.7 89 89 Calm 30.13 1020 10 16 0.00 0.00
8:10 am 08:10 Cloudy 39 3.9 36 2.2 89 89 Calm 30.15 1021 10 16 0.00 0.00
8:36 am 08:36 Cloudy 40 4.4 36 2.2 86 86 SE 5 7 30.14 1021 10 16 0.00 0.00
8:53 am 08:53 Cloudy 41 5 36 2.2 82 82 E 7 11 30.12 1020 10 16 0.00 0.00
9:53 am 09:53 Cloudy 42 5.6 37 2.8 82 82 SSE 7 11 30.12 1020 10 16 0.00 0.00
10:53 am 10:53 Cloudy 44 6.7 38 3.3 79 79 S 6 9 30.11 1020 10 16 0.00 0.00
11:53 am 11:53 Cloudy 46 7.8 38 3.3 73 73 SSE 6 9 30.07 1018 10 16 0.00 0.00
12:53 pm 12:53 Cloudy 50 10 38 3.3 63 63 SSW 5 7 30.04 1017 10 16 0.00 0.00
1:53 pm 13:53 Cloudy 50 10 39 3.9 66 66 SSW 3 6 30.02 1017 10 16 0.00 0.00
2:53 pm 14:53 Cloudy 53 11.7 40 4.4 61 61 Calm 30.01 1016 10 16 0.00 0.00
3:53 pm 15:53 Cloudy 52 11.1 40 4.4 64 64 SSE 3 6 30.01 1016 10 16 0.00 0.00
4:53 pm 16:53 Cloudy 50 10 41 5 71 71 ESE 6 9 30.00 1016 10 16 0.00 0.00
5:53 pm 17:53 Cloudy 49 9.4 40 4.4 71 71 SE 5 7 30.00 1016 10 16 0.00 0.00
6:53 pm 18:53 Cloudy 49 9.4 40 4.4 71 71 SSE 6 9 30.00 1016 10 16 0.00 0.00
7:53 pm 19:53 Cloudy with Light Rain 48 8.9 41 5 77 77 SSE 7 11 29.99 1016 10 16 0.00 0.00
8:53 pm 20:53 Cloudy with Light Rain 47 8.3 42 5.6 83 83 S 5 7 29.98 1015 9 14 0.00 0.00
9:53 pm 21:53 Cloudy 47 8.3 42 5.6 83 83 Calm 29.99 1016 10 16 0.01 0.25
10:33 pm 22:33 Cloudy 46 7.8 42 5.6 86 86 SE 5 7 29.99 1016 10 16 0.00 0.00
10:46 pm 22:46 Cloudy 46 7.8 42 5.6 86 86 SE 5 7 29.99 1016 10 16 0.00 0.00
10:53 pm 22:53 Cloudy 46 7.8 42 5.6 86 86 SSE 3 6 29.98 1015 10 16 0.00 0.00
11:03 pm 23:03 Cloudy 46 7.8 42 5.6 86 86 SSE 3 6 29.99 1016 10 16 0.00 0.00
11:36 pm 23:36 Cloudy 46 7.8 42 5.6 86 86 Calm 29.99 1016 10 16 0.00 0.00
11:53 pm 23:53 Cloudy 46 7.8 42 5.6 86 86 Calm 29.97 1015 9 14 0.00 0.00

Powered by AerisWeather